Wind_Speed
13 13 13 13 14 14 14 15 16 18 18 16 16 16 15 15 15 16 16 16 16 15 15 15 15 15 14 13 12 11 10 9 7 7 6 6 6 6 6 7 7 8 10 11
13 13 13 13 14 15 15 16 16 18 19 18 18 17 16 16 16 16 16 17 17 16 16 16 16 15 15 14 12 11 10 10 9 8 8 8 8 8 8 9 9 10 11 12
13 14 13 13 14 15 16 16 17 18 19 20 19 18 17 17 17 17 17 17 17 17 16 16 16 16 15 14 13 12 11 11 10 10 10 10 10 10 10 10 11 12 13 14
14 14 14 13 14 15 16 17 18 18 19 20 19 19 18 17 17 17 18 18 17 17 17 17 17 16 16 15 14 13 12 12 11 11 11 12 12 12 12 13 13 15 16 17
14 14 13 14 15 15 16 17 18 18 20 20 20 19 18 18 18 18 18 18 18 18 18 18 18 17 16 16 15 14 13 13 13 13 13 14 14 14 15 16 16 17 19 20
15 15 14 15 16 15 16 17 18 18 18 19 19 19 18 19 19 19 19 19 19 19 19 19 19 18 17 17 16 16 15 15 15 15 15 16 16 17 17 18 19 20 22 23
16 16 15 15 16 16 16 16 17 18 18 18 17 18 20 20 20 20 20 20 20 20 20 20 20 19 19 18 18 17 17 17 17 17 17 18 18 19 20 21 22 23 24 26
17 17 16 17 17 17 17 17 18 19 19 19 20 20 21 21 20 20 20 20 20 21 21 21 21 21 20 20 19 19 19 19 19 20 20 20 21 22 22 23 25 26 27 28
19 19 18 19 19 19 18 18 19 19 20 21 22 22 22 21 21 21 21 21 22 22 22 22 22 22 22 22 22 22 22 22 22 22 23 23 24 25 26 26 28 29 30 31
21 20 21 21 21 21 21 21 21 21 21 21 22 23 23 23 23 22 22 22 23 23 23 23 23 23 24 24 24 24 24 24 25 25 26 27 27 28 29 30 31 32 33 34
23 23 24 23 23 23 23 23 23 23 23 22 22 23 23 24 24 24 24 24 24 24 24 25 25 25 26 26 26 26 27 27 28 29 29 30 31 32 33 34 35 35 36 37
25 25 25 24 24 24 24 24 25 24 24 24 24 24 24 25 25 25 25 25 25 26 26 27 27 28 28 29 29 29 30 30 31 32 33 33 34 35 36 37 37 38 39 39
27 27 27 26 26 26 26 26 26 26 26 25 25 25 26 26 26 26 27 27 28 28 28 29 29 30 30 31 31 32 33 33 34 35 35 36 37 37 38 39 40 41 41 41
30 29 29 29 29 28 28 28 28 27 27 27 27 27 27 28 28 28 29 29 30 30 30 31 31 32 32 33 34 34 35 36 36 37 38 38 39 40 41 42 42 42 43 44
32 32 31 31 30 30 30 30 29 29 28 29 29 29 29 29 30 30 31 31 31 31 32 32 33 34 35 36 36 37 38 38 39 40 41 42 42 43 43 43 44 44 45 46
35 34 34 33 32 32 32 32 32 31 31 31 31 31 31 31 32 32 32 33 33 33 34 34 35 36 37 38 39 40 40 41 42 43 43 43 44 44 45 45 46 46 47 47
37 36 35 35 35 34 34 34 34 34 34 34 34 34 34 34 34 34 35 35 36 36 37 37 38 39 40 40 41 41 42 43 44 44 45 45 46 47 47 47 48 48 48 49
38 38 38 37 37 37 37 36 37 37 37 37 36 36 37 37 37 37 38 38 39 39 39 40 41 42 42 43 44 44 45 46 46 47 47 48 48 49 49 49 50 50 51 51
40 40 39 39 39 39 39 39 39 39 39 39 39 39 39 40 40 40 41 41 41 42 42 43 44 44 45 46 46 47 47 48 48 49 50 50 51 51 52 52 52 53 53 54
41 42 41 41 41 41 41 40 40 41 41 41 42 42 42 42 43 43 43 44 44 44 45 46 46 47 48 48 49 50 50 51 51 52 52 52 53 53 54 54 54 55 55 56
41 42 42 42 42 42 43 43 43 43 43 43 43 43 44 44 45 45 45 46 46 47 48 48 49 49 50 51 51 52 52 53 53 54 54 55 55 55 56 56 56 57 58 58
42 42 42 43 43 43 43 44 44 44 44 45 45 45 46 46 47 48 48 48 49 50 50 51 51 51 52 52 52 53 53 54 54 55 55 56 56 57 57 58 58 59 60 60
43 43 43 44 45 45 45 45 45 46 46 46 47 47 48 48 49 49 50 50 50 51 52 52 52 52 53 53 53 54 54 55 55 56 56 57 58 59 59 60 60 61 61 62
43 44 45 45 45 46 47 47 47 47 48 48 48 49 50 50 51 51 51 51 52 52 52 52 53 53 54 54 54 55 55 56 56 57 58 59 60 60 60 60 61 62 62 63
44 44 44 45 45 46 47 47 48 49 50 50 50 51 51 52 52 52 52 52 52 53 53 54 54 54 55 56 56 57 57 58 58 59 60 60 61 61 61 61 62 63 63 64
45 45 45 45 45 46 47 48 49 49 50 51 52 52 53 53 53 53 53 53 53 54 55 56 56 57 58 58 59 59 60 60 60 60 61 61 61 61 61 62 63 63 63 63
45 45 46 46 46 47 47 48 49 49 50 51 52 52 53 54 54 55 55 55 56 56 57 57 58 58 59 59 60 60 60 60 61 61 61 62 62 62 62 63 63 63 63 63
Wind_Direction
204 204 204 204 207 210 210 206 205 203 204 203 206 208 209 209 209 209 210 209 210 212 212 212 212 212 212 212 214 216 220 224 230 238 250 263 276 288 297 304 312 321 328 331
214 215 213 213 214 215 212 210 209 207 207 209 212 211 211 213 213 213 213 213 213 213 213 213 215 215 215 216 217 220 225 231 237 245 253 263 272 281 289 296 303 311 318 321
223 224 223 219 218 218 216 213 211 209 208 214 216 217 217 219 219 218 216 215 215 214 214 215 217 217 217 218 222 226 231 236 242 250 257 264 271 279 286 293 299 306 311 314
227 228 226 220 221 222 221 218 217 215 216 219 219 218 219 223 224 221 219 218 218 217 217 218 220 220 221 224 228 233 237 241 248 255 261 265 270 277 285 292 296 301 305 308
232 231 228 227 228 227 226 224 223 222 222 223 222 222 223 225 225 223 221 220 220 220 220 222 223 224 226 229 233 238 242 248 254 260 265 268 272 278 284 290 294 298 301 304
236 234 231 230 231 231 230 229 226 224 225 225 223 224 225 226 226 225 224 223 222 222 224 225 226 228 231 234 238 242 247 252 258 263 267 270 274 279 284 288 292 296 299 301
239 238 235 233 232 233 233 230 227 223 223 224 224 224 226 228 228 228 228 226 226 227 228 229 231 233 235 239 243 246 251 256 260 264 268 272 277 280 285 289 292 295 297 300
240 241 240 238 236 235 234 231 228 225 224 226 226 228 230 233 232 232 232 232 232 232 233 234 236 238 240 243 246 251 255 260 264 268 272 275 279 282 286 289 292 294 296 299
239 241 242 242 241 238 237 236 234 233 231 230 231 233 234 236 236 235 233 233 234 235 236 238 241 243 244 247 251 255 259 264 267 271 274 277 280 283 286 289 291 294 296 297
240 241 242 242 242 242 241 241 240 239 238 237 236 237 238 238 238 237 237 237 238 239 241 243 245 247 249 252 255 259 263 267 270 273 276 279 281 284 286 288 291 293 294 296
243 242 242 242 243 244 243 243 243 243 243 242 242 241 240 240 240 239 240 242 243 244 245 247 249 251 253 256 259 262 266 269 272 275 278 280 282 284 287 288 290 292 293 295
243 243 243 243 245 245 245 244 244 245 246 246 246 245 243 243 243 243 243 245 246 248 249 250 252 253 256 259 262 265 268 270 273 276 279 281 283 285 286 288 290 291 293 294
244 244 245 245 246 247 246 245 245 246 246 247 247 247 246 246 246 246 246 248 249 251 253 253 255 256 258 261 264 267 269 272 275 277 279 282 283 285 286 288 289 291 292 293
245 245 246 247 248 248 247 247 247 248 248 248 248 249 249 249 249 249 250 251 253 254 255 256 257 259 261 263 266 269 271 273 276 277 280 282 283 285 287 288 289 290 291 292
245 246 246 247 248 249 249 248 248 249 249 248 249 250 250 250 250 251 252 253 254 256 257 259 260 262 263 265 268 270 273 275 276 278 280 282 284 285 286 288 289 290 291 292
244 245 246 247 248 248 249 249 249 249 250 250 250 251 251 252 252 253 254 255 256 258 259 261 262 264 266 268 270 272 273 275 277 279 281 282 284 285 286 288 289 290 290 291
245 245 246 248 249 249 249 250 250 250 251 252 253 253 254 254 254 255 256 257 258 260 261 263 264 266 268 269 271 272 274 276 278 279 281 282 284 285 286 287 288 289 290 291
247 247 247 248 249 250 251 251 251 251 252 252 253 254 255 255 256 257 258 259 260 261 263 264 265 266 268 270 271 273 275 276 278 279 281 283 284 285 286 287 288 289 290 290
248 248 248 249 249 250 251 252 252 252 253 254 254 255 255 256 257 258 260 261 262 263 264 265 267 269 270 272 273 274 276 277 278 280 281 282 284 285 286 287 288 288 289 290
249 249 249 249 250 251 252 252 253 254 254 255 256 256 257 257 258 259 260 262 263 264 266 267 269 271 272 273 274 275 277 278 279 280 281 282 283 284 286 287 287 288 289 290
249 250 250 250 251 252 253 254 255 255 256 256 257 257 258 259 259 260 261 263 264 265 267 269 270 272 273 274 275 276 277 278 279 280 281 282 283 284 285 286 287 288 289 290
250 250 251 251 251 252 253 254 255 256 256 257 258 258 259 260 261 262 263 265 266 267 268 269 271 272 273 274 275 276 277 278 279 280 281 282 283 284 285 286 287 288 289 289
250 251 252 253 253 253 254 255 256 256 257 258 259 260 261 262 263 264 265 266 267 268 269 270 271 272 273 274 275 276 277 278 279 280 281 282 283 284 286 286 287 288 288 289
252 253 253 254 255 255 256 257 257 257 258 258 260 261 262 263 264 265 266 267 268 269 270 271 272 272 273 274 276 277 278 279 280 281 282 283 284 285 285 286 287 287 288 289
253 254 255 255 256 256 257 258 258 259 260 260 261 262 263 264 264 265 266 267 268 269 271 272 272 273 274 275 276 277 278 279 281 281 282 283 284 285 285 286 286 287 288 289
255 256 256 256 257 257 258 258 259 260 260 261 262 262 263 264 265 266 267 268 268 269 270 272 273 274 275 276 277 278 279 280 280 281 282 283 284 284 285 286 287 288 288 289
258 259 259 260 260 260 260 260 261 262 263 263 263 263 264 264 265 266 267 268 269 270 271 272 273 274 276 277 277 278 279 280 281 282 283 283 284 285 286 286 287 288 288 289
Height
5811 5813 5814 5816 5818 5820 5823 5825 5828 5831 5833 5836 5838 5840 5842 5844 5847 5849 5852 5854 5857 5859 5861 5863 5865 5867 5869 5870 5872 5873 5874 5875 5875 5876 5876 5876 5876 5875 5875 5874 5873 5872 5870 5869
5810 5811 5812 5814 5816 5818 5820 5823 5826 5828 5832 5834 5835 5837 5840 5842 5844 5847 5849 5851 5854 5856 5858 5860 5862 5864 5866 5868 5869 5871 5872 5872 5873 5873 5873 5873 5873 5873 5872 5871 5870 5869 5868 5867
5808 5809 5811 5813 5815 5816 5818 5821 5823 5826 5829 5830 5832 5835 5837 5839 5842 5844 5846 5849 5851 5853 5855 5858 5860 5862 5864 5865 5866 5868 5869 5869 5870 5870 5871 5871 5870 5870 5869 5868 5867 5866 5865 5864
5806 5808 5809 5813 5812 5813 5815 5818 5820 5822 5825 5827 5829 5831 5834 5836 5839 5841 5843 5846 5848 5850 5852 5855 5857 5859 5861 5862 5863 5864 5865 5866 5867 5867 5867 5867 5867 5866 5866 5865 5864 5863 5861 5860
5803 5805 5807 5809 5809 5811 5813 5815 5817 5819 5821 5823 5826 5828 5831 5833 5835 5838 5840 5842 5845 5847 5849 5851 5853 5855 5857 5858 5860 5861 5862 5862 5863 5863 5863 5863 5863 5862 5862 5861 5860 5858 5857 5855
5800 5802 5804 5806 5806 5807 5811 5812 5813 5815 5818 5820 5823 5826 5829 5830 5832 5834 5836 5838 5841 5843 5845 5848 5849 5851 5853 5854 5856 5857 5857 5858 5858 5859 5859 5859 5858 5858 5857 5856 5855 5853 5851 5849
5796 5798 5800 5802 5802 5805 5808 5809 5810 5812 5814 5817 5819 5822 5824 5825 5828 5830 5832 5835 5837 5839 5841 5843 5845 5847 5849 5850 5851 5852 5853 5853 5854 5854 5854 5853 5853 5852 5851 5850 5849 5847 5846 5843
5792 5794 5798 5797 5799 5801 5803 5804 5806 5808 5810 5812 5815 5817 5819 5821 5823 5826 5828 5831 5833 5835 5837 5839 5840 5842 5844 5845 5846 5846 5847 5848 5848 5848 5848 5847 5847 5846 5845 5844 5842 5841 5839 5836
5788 5791 5792 5792 5794 5796 5798 5799 5801 5804 5806 5808 5810 5812 5815 5817 5819 5821 5823 5825 5827 5829 5831 5833 5835 5837 5838 5839 5840 5840 5841 5841 5842 5842 5841 5841 5840 5839 5838 5837 5835 5833 5831 5829
5782 5784 5786 5787 5789 5791 5793 5795 5797 5799 5801 5803 5805 5807 5809 5811 5814 5816 5818 5820 5822 5824 5826 5827 5829 5830 5832 5832 5833 5834 5834 5834 5834 5834 5834 5833 5833 5831 5830 5829 5827 5825 5822 5820
5776 5778 5779 5781 5783 5785 5787 5789 5791 5794 5796 5798 5800 5802 5804 5806 5808 5810 5812 5814 5816 5818 5819 5821 5822 5824 5825 5825 5826 5827 5827 5827 5827 5827 5826 5825 5824 5823 5821 5820 5818 5816 5813 5810
5769 5771 5773 5775 5777 5779 5781 5783 5785 5788 5790 5792 5794 5796 5798 5799 5801 5803 5805 5807 5809 5811 5812 5814 5815 5816 5817 5818 5818 5819 5819 5819 5818 5818 5817 5816 5815 5814 5812 5810 5808 5805 5803 5800
5761 5764 5766 5768 5770 5772 5774 5776 5778 5781 5783 5785 5787 5789 5791 5793 5794 5796 5798 5800 5802 5803 5805 5806 5807 5808 5809 5809 5810 5810 5810 5809 5809 5808 5807 5806 5805 5803 5801 5799 5797 5794 5791 5789
5753 5755 5758 5760 5762 5764 5766 5768 5771 5773 5775 5777 5779 5781 5783 5785 5787 5789 5790 5792 5794 5795 5796 5797 5798 5799 5800 5800 5800 5800 5800 5799 5799 5798 5797 5795 5794 5792 5790 5788 5785 5782 5780 5777
5744 5746 5749 5751 5754 5756 5758 5760 5762 5765 5767 5769 5771 5773 5775 5776 5778 5780 5782 5783 5785 5786 5787 5788 5789 5789 5789 5790 5790 5790 5789 5789 5788 5786 5785 5784 5782 5780 5777 5775 5773 5770 5767 5764
5734 5737 5739 5742 5744 5747 5749 5751 5753 5756 5757 5759 5762 5763 5765 5767 5769 5770 5772 5773 5775 5776 5777 5777 5778 5778 5778 5779 5779 5778 5778 5777 5776 5774 5773 5771 5769 5767 5765 5762 5760 5757 5754 5751
5724 5727 5729 5732 5734 5737 5739 5741 5744 5746 5748 5750 5752 5754 5755 5757 5759 5760 5761 5763 5764 5765 5766 5766 5767 5767 5767 5767 5766 5766 5765 5764 5763 5761 5760 5758 5756 5754 5751 5749 5746 5743 5740 5737
5713 5716 5719 5721 5724 5726 5729 5731 5733 5735 5737 5739 5741 5743 5745 5746 5748 5749 5750 5751 5752 5753 5754 5754 5754 5754 5754 5754 5753 5753 5752 5751 5749 5748 5746 5744 5742 5739 5737 5734 5731 5728 5725 5721
5701 5704 5707 5709 5712 5715 5717 5719 5721 5723 5726 5727 5729 5731 5733 5734 5736 5737 5738 5739 5740 5741 5741 5741 5741 5741 5741 5740 5739 5739 5737 5736 5735 5733 5731 5729 5727 5724 5722 5719 5716 5713 5709 5706
5688 5691 5694 5697 5699 5702 5705 5707 5709 5711 5713 5715 5717 5718 5720 5721 5723 5724 5725 5726 5727 5727 5727 5727 5727 5727 5726 5725 5724 5723 5722 5721 5719 5718 5715 5713 5711 5708 5705 5703 5699 5696 5692 5689
5676 5678 5681 5683 5686 5689 5691 5694 5696 5698 5700 5701 5703 5705 5706 5707 5709 5710 5710 5711 5712 5712 5712 5712 5712 5712 5711 5710 5709 5708 5706 5705 5703 5701 5699 5697 5694 5691 5689 5686 5682 5679 5675 5671
5663 5665 5668 5670 5672 5675 5677 5680 5682 5684 5686 5687 5689 5690 5691 5693 5694 5695 5696 5696 5697 5697 5697 5697 5696 5696 5695 5693 5692 5691 5690 5688 5686 5684 5682 5679 5677 5674 5671 5668 5664 5661 5657 5653
5650 5652 5655 5657 5659 5661 5663 5665 5667 5669 5671 5672 5674 5675 5676 5677 5678 5679 5680 5680 5680 5680 5680 5680 5679 5679 5677 5676 5675 5674 5672 5671 5668 5666 5664 5661 5659 5656 5653 5649 5646 5642 5638 5635
5636 5638 5640 5642 5644 5646 5648 5650 5652 5654 5655 5657 5658 5659 5660 5661 5662 5662 5663 5664 5664 5663 5663 5663 5662 5661 5660 5659 5657 5656 5654 5653 5650 5648 5645 5643 5640 5637 5633 5630 5627 5623 5619 5615
5621 5623 5625 5628 5630 5631 5633 5635 5636 5638 5639 5641 5642 5643 5644 5644 5645 5646 5646 5646 5646 5646 5646 5645 5645 5643 5642 5641 5639 5638 5636 5634 5632 5629 5626 5624 5621 5618 5614 5611 5607 5604 5600 5596
5606 5608 5610 5612 5614 5616 5617 5619 5621 5622 5623 5624 5625 5626 5627 5627 5628 5628 5629 5629 5629 5628 5628 5627 5626 5625 5624 5622 5621 5619 5617 5615 5612 5610 5607 5604 5602 5598 5595 5592 5588 5584 5580 5576
5592 5594 5596 5597 5599 5600 5602 5603 5604 5605 5606 5607 5608 5608 5609 5610 5610 5610 5610 5610 5610 5610 5609 5608 5607 5606 5605 5603 5602 5600 5597 5595 5593 5590 5588 5585 5582 5579 5576 5572 5568 5564 5560 5555